Regional Weather Roundup
Issued by NWS Grand Forks, ND

Home | Current Version | Previous Version | Text Only | Print | Product List | Glossary Off
Versions: 1 2 3 4 5 6 7 8 9 10 11 12 13 14 15 16 17 18 19 20 21 22 23 24 25 26 27 28 29 30 31 32 33 34 35 36 37 38 39 40 41 42 43 44 45 46 47 48 49 50

000
ASUS43 KFGF 251031
RWRFGF
PRAIRIE TO PINES  WEATHER ROUNDUP
NATIONAL WEATHER SERVICE EASTERN NORTH DAKOTA/GRAND FORKS ND
500 AM CDT WED MAY 25 2016

 **SATELLITE DATA USED TO AUGMENT SKY COVER AT AUTOMATED STATIONS**
 *****  WEATHER ACROSS EASTERN NORTH DAKOTA  *****

CITY           SKY/WX    TMP DP  RH WIND       PRES   REMARKS
GRAND FORKS    CLOUDY    61  52  72 E7        29.85F
GRAND FRKS AFB CLOUDY    59  52  76 SE3       29.86F
GRAND FRKS NWS   N/A     59 N/A N/A E9          N/A
DEVILS LAKE    CLOUDY    64  49  57 E10       29.86F
FARGO          CLOUDY    67  49  52 E13       29.82F
WAHPETON ARPT  CLOUDY    63  50  63 E7        29.81F
$$

 ***** WEATHER ACROSS CENTRAL AND WESTERN NORTH DAKOTA  *****

CITY           SKY/WX    TMP DP  RH WIND       PRES   REMARKS
BISMARCK       CLOUDY    58  56  93 SE5       29.84F
MINOT          LGT RAIN  57  53  86 N8        29.84F
JAMESTOWN      NOT AVBL
MINOT AFB      RAIN      55  54  94 NE7       29.84F
GARRISON         N/A     57  53  86 SE12      29.86R
WILLISTON      CLOUDY    55  43  63 NE12      29.87F
DICKINSON      MOCLDY    50  48  93 NE8       29.80S
HETTINGER      CLOUDY    52  48  86 SW7       29.84R
$$

 *****  OTHER AIRPORT OBSERVATIONS IN OUR AREA  *****

CITY           SKY/WX    TMP DP  RH WIND       PRES   REMARKS
WALHALLA       FAIR      50  50 100 CALM      29.89S
GRAFTON AIRPOR FAIR      57  55  94 SE7       29.89S
VALLEY CITY AR FAIR      59  57  94 E8        29.83F
CANDO          FAIR      57  50  77 E9        29.87F
CAVALIER APRT  FAIR      52  52 100 CALM      29.89S
GWINNER        FAIR      63  55  77 S5        29.80R
ROLLA          FAIR      54  46  76 NE3       29.89S
 ***** THE ABOVE OBSERVATIONS ARE NON NWS ARE NOT QUALITY
       CONTROLLED AND MAY MIS-REPORT RAIN FOR SNOW...
$$

  *****  WEATHER ACROSS NORTHERN MINNESOTA  *****

CITY           SKY/WX    TMP DP  RH WIND       PRES   REMARKS
FLAG ISLAND    MOCLDY    57  55  94 SE3       29.95S
WARROAD        PTCLDY    54  50  87 CALM      29.94F
ROSEAU         MOCLDY    52  46  82 NE3       29.93F
HALLOCK        CLOUDY    57  52  82 E6        29.89S
THF RVR FALLS  CLOUDY    59  50  72 E10       29.91F
BAUDETTE       CLOUDY    50  48  93 SE5       29.95F
WASKISH        MOCLDY    52  50  93 E5        29.95F
CROOKSTON      CLOUDY    61  52  72 E12       29.87F
STEPHEN NDAWN    N/A     57  54  88 E5          N/A
GREENBUSH NDAW   N/A     55  52  88 NE3         N/A
$$
  *****  WEATHER ACROSS CENTRAL AND WEST MINNESOTA  *****

CITY           SKY/WX    TMP DP  RH WIND       PRES   REMARKS
FOSSTON        CLOUDY    57  50  77 E7        29.90F
BEMIDJI        CLOUDY    56  53  91 E7        29.93S
PARK RAPIDS    CLOUDY    59  53  80 E10       29.91F
ELBOW LAKE     FAIR      63  56  77 SE10      29.82F
WADENA         CLOUDY    55  52  88 E8        29.88F
DETROIT LAKES  CLOUDY    63  50  63 E6        29.88F
MOORHEAD       CLOUDY    66  48  52 E13       29.81F
FERGUS FALLS   CLOUDY    66  54  63 E8        29.79F
MORRIS MN      CLOUDY    63  55  77 E12       29.80F
STAPLES        CLOUDY    55  54  94 E6        29.89F
$$
  *****  WEATHER ELSEWHERE ACROSS MINNESOTA  *****

CITY           SKY/WX    TMP DP  RH WIND       PRES   REMARKS
DULUTH         FOG       49  48  97 E10       30.01F VSB 1/2
INTRNTL FALLS  FOG       50  50 100 SE5       29.98S VSB 1/4
ELY            CLOUDY    52  48  87 SE8       30.02F
CLOQUET        FOG       48  46  93 E12       29.99F VSB 1/2
WHEATON        CLOUDY    64  57  77 E8        29.81F
BRAINERD       CLOUDY    56  56 100 E10       29.93F
HIBBING        CLOUDY    52  51  97 SE9       30.00F
ALEXANDRIA     CLOUDY    61  53  75 E10       29.87F
SAINT CLOUD    CLOUDY    59  56  89 E9        29.88F
MINNEAPOLIS    CLOUDY    67  57  70 E9        29.87F
$$

  *****  WEATHER ACROSS SOUTH DAKOTA  *****

CITY           SKY/WX    TMP DP  RH WIND       PRES   REMARKS
SIOUX FALLS    TSTM      60  58  92 SW8G24    29.80R
BROOKINGS      LGT RAIN  66  63  88 SE14      29.78R
WATERTOWN      CLOUDY    67  60  78 CALM      29.78F
HURON          RAIN      60  59  96 NE13      29.73S
SISSETON         N/A     59  52  77 CALM      29.78F
ABERDEEN       LGT RAIN  61  56  83 N12       29.77F
MITCHELL       LGT RAIN  60  59  96 E12       29.68F
PIERRE         CLOUDY    57  54  89 N9        29.73F
MOBRIDGE       RAIN      58  52  80 E17G30    29.79F
RAPID CITY     PTCLDY    46  45  96 W7        29.84S
$$

  *****  SOME WEATHER IN NEARBY STATES *****

CITY           SKY/WX    TMP DP  RH WIND       PRES   REMARKS
GLASGOW MT     MOCLDY    44  42  93 SE3       29.86F
GREAT FALLS MT CLEAR     38  35  89 SW8       29.90R
CHEYENNE WY    CLEAR     46  34  62 NW10      29.96R
SCOTTSBLUFF NE CLOUDY    52  48  86 SE5       29.89R
OMAHA NE       LGT RAIN  65  60  84 SE12G29   29.75F
DES MOINES IA  TSTM      66  63  90 SE6       29.90S FOG
DAVENPORT IA   CLEAR     62  60  93 S6        29.94R
CHICAGO IL     PTCLDY    64  60  87 S3        29.97F
EAU CLAIRE WI  PTCLDY    59  56  89 NE8       29.92F
LA CROSSE WI   CLOUDY    61  57  87 E5        29.90F
$$

  *****  SOME NATIONAL WEATHER *****

CITY           SKY/WX    TMP DP  RH WIND       PRES   REMARKS
LA GUARDIA NY  PTCLDY    62  56  80 CALM      30.02S
RALEIGH NC     PTCLDY    62  55  77 SW3       30.18S
ATLANTA GA     PTCLDY    67  53  61 CALM      30.17S
NEW ORLEANS LA PTCLDY    76  72  87 SE5       30.09R
OKLAHOMA CITY  MOCLDY    75  72  90 S17       29.87R
ALBUQUERQUE NM CLEAR     54  13  19 SE3       30.08R
SALT LAKE CITY MOCLDY    53  40  61 SE6       29.96S
LOS ANGELES CA PTCLDY    58  52  80 W10       30.04S
BOISE ID       MOCLDY    53  41  63 CALM      29.93R
SEATTLE WA     CLOUDY    55  50  83 SW3       30.06R
$$

*** WEATHER ACROSS MANITOBA...SASKATCHEWAN AND ONTARIO ***
                ***ONTARIO***

CITY           SKY/WX    TMP DP  RH WIND       PRES   REMARKS
GERALDTON      MOCLDY    43  41  93 SE5       30.14R
THUNDER BAY    CLOUDY    50  45  81 E9        30.11R
SIOUX LOOKOUT  FOG       50  50 100 SE5       30.02S VSB 1
TORONTO        MOCLDY    64  46  52 W10       29.99R
BIG TROUT LK   CLEAR     43  37  81 SE8       30.07R
PICKLE LAKE    NOT AVBL
DRYDEN         FOG       52  50  93 SE7       30.01R VSB 1/4
KENORA         PTCLDY    50  50 100 SE7       29.98R
$$
                *** MANITOBA***

CITY           SKY/WX    TMP DP  RH WIND       PRES   REMARKS
BRANDON        MOCLDY    50  48  93 NE9       29.89F
DAUPHIN        CLOUDY    50  48  93 NW2       29.93S
ISLAND LAKE    PTCLDY    43  41  93 E3        30.00
PILOT MOUND      N/A     54  48  82 E8          N/A
THE PAS        CLOUDY    45  43  93 CALM      29.97S
THOMPSON       MOCLDY    37  36  93 VRB2      30.02S
WINNIPEG       MOCLDY    55  50  82 E3        29.92R
LYNN LAKE      CLOUDY    45  39  81 S5        29.96S
CHURCHILL      CLOUDY    32  25  74 SE10      30.11F WCI  24
GILLAM         CLOUDY    39  34  81 SE5       30.07S
$$
                ***SASKATCHEWAN***

CITY           SKY/WX    TMP DP  RH WIND       PRES   REMARKS
ESTEVAN        MOCLDY    48  39  71 W10       29.89R
KINDERSLEY     CLOUDY    46  45  93 NE8       29.88S
LLOYDMINSTER   PTCLDY    41  41 100 S5        29.91R
PRINCE ALBERT  FOG       45  43  93 E8        29.92S VSB 3/4
REGINA         PTCLDY    39  37  93 SE7       29.89R
YORKTON        FOG       41  41 100 CALM      29.91R VSB 1/4
N. BATTLEFORD  CLOUDY    48  48 100 E6        29.92F
LA RONGE       MOCLDY    46  45  93 S5        29.93S
SASKATOON      CLEAR     43  43 100 NE6       29.88F
SWIFT CURRENT  FOG       45  45 100 W7        29.86S VSB 1
$$
NOTE: THESE ARE AUTOMATED STATIONS WITH LIMITED QUALITY CONTROL
      "FAIR" INDICATES FEW OR NO CLOUDS BELOW 12,000 FEET WITH NO
      SIGNIFICANT WEATHER AND/OR OBSTRUCTIONS TO VISIBILITY.
      SKY/WX - SKY CONDITION AND SIGNIFICANT WEATHER.
      TMP - AIR TEMPERATURE.    DP   - DEWPOINT TEMPERATURE.
      RH  - RELATIVE HUMIDITY.  PRES - PRESSURE.
      HX  - HEAT INDEX.         WCI  - WIND CHILL INDEX.
$




USA.gov is the U.S. government's official web portal to all federal, state and local government web resources and services.